Location: Waco, TX
(31.5480°N, 97.1670°W)
Time: 13:40:47
(UTC-05:00)

ISS - Pass Details

Date: 13 May 2021
Orbit: 417 x 422 km, 51.6° (Epoch: 15 May)

Event Time Altitude Azimuth Distance (km) Brightness Sun altitude
Rises 22:43:08 0° 249° (WSW) 2,347 0.3 -26.5°
Reaches altitude 10° 22:45:27 10° 263° (W) 1,488 -0.6 -26.9°
Enters shadow 22:46:50 19° 282° (WNW) 1,071 -1.2 -27.1°
Maximum altitude 22:48:18 26° 322° (NW) 871 - -27.3°
Drops below altitude 10° 22:51:10 10° 20° (NNE) 1,495 - -27.7°
Sets 22:53:30 0° 34° (NE) 2,362 - -28.0°
